Location: Moonridge Observatory
(39.2268°N, 77.7914°W)
Time: 19:28:54
(UTC-04:00)

CZ-2C R/B - Visible Passes

Search period start: 16 September 2014 00:00
Search period end: 26 September 2014 00:00
Orbit: 706 x 909 km, 98.1° (Epoch: 16 September)

Date Brightness Start Highest point End Pass type
(mag) Time Alt. Az. Time Alt. Az. Time Alt. Az.
16 Sep 6.0 02:32:02 10° ENE 02:32:29 10° ENE 02:32:56 10° NE visible
16 Sep 3.7 04:12:46 50° N 04:12:46 50° N 04:16:46 10° N visible
17 Sep 4.2 03:48:08 40° NE 03:48:08 40° NE 03:52:09 10° N visible
17 Sep 4.8 05:29:14 16° WNW 05:29:14 16° WNW 05:30:59 10° NW visible
18 Sep 4.9 03:23:30 28° NE 03:23:30 28° NE 03:27:18 10° N visible
18 Sep 4.4 05:04:36 24° NW 05:04:36 24° NW 05:07:18 10° NNW visible
19 Sep 5.5 02:58:53 18° ENE 02:58:53 18° ENE 03:02:07 10° NNE visible
19 Sep 4.1 04:39:58 34° NW 04:39:58 34° NW 04:43:12 10° NNW visible
20 Sep 6.0 02:34:15 11° ENE 02:34:23 11° ENE 02:35:59 10° NE visible
20 Sep 4.1 04:15:21 40° N 04:15:21 40° N 04:18:50 10° NNW visible
21 Sep 4.4 03:50:44 36° NNE 03:50:44 36° NNE 03:54:15 10° N visible
21 Sep 5.0 05:31:50 14° NW 05:31:50 14° NW 05:32:56 10° NW visible
22 Sep 5.0 03:26:07 27° NE 03:26:07 27° NE 03:29:27 10° N visible
22 Sep 4.7 05:07:13 20° NW 05:07:13 20° NW 05:09:18 10° NNW visible
23 Sep 5.5 03:01:30 19° NE 03:01:30 19° NE 03:04:20 10° NNE visible
23 Sep 4.5 04:42:36 27° NNW 04:42:36 27° NNW 04:45:14 10° NNW visible
24 Sep 6.0 02:36:54 12° NE 02:36:54 12° NE 02:38:31 10° NE visible
24 Sep 4.5 04:18:00 32° NNW 04:18:00 32° NNW 04:20:54 10° NNW visible
25 Sep 4.7 03:53:24 30° N 03:53:24 30° N 03:56:20 10° N visible
25 Sep 5.2 05:34:30 11° NW 05:34:30 11° NW 05:34:53 10° NW visible
